Flight Track Log - Related Links

Times and Time Zones

All times are in EST time to prevent confusion due to time zone crossing. See the SWA407 flight status page for this flight to view local times or setup timezone preferences in your user account.

Time Position Orientation Groundspeed Altitude Reporting Facility
EST Latitude Longitude Course Direction KTS MPH feet Rate Location/Type
Sun 06:44:44 PM 36.0639 -115.2519 259° West 232 267 5,600  Level Los Angeles Center
Sun 06:45:07 PM 36.0439 -115.2675 212° Southwest 251 289 6,700 1,475 Climbing Los Angeles Center
Sun 06:45:45 PM 35.9967 -115.2900 201° Southwest 271 312 7,100 290 Climbing Los Angeles Center
Sun 06:46:09 PM 35.9725 -115.2989 197° South 273 314 7,000 1,180 Descending Los Angeles Center
Sun 06:46:46 PM 35.9242 -115.2844 166° South 275 316 8,300 2,806 Climbing Los Angeles Center
Sun 06:47:11 PM 35.8931 -115.2706 160° South 280 322 9,900 3,034 Climbing Los Angeles Center
Sun 06:48:13 PM 35.8481 -115.1806 122° Southeast 333 383 12,700 3,145 Climbing Los Angeles Center
Sun 06:49:15 PM 35.8236 -115.0564 104° East 351 404 16,400 3,048 Climbing Los Angeles Center
Sun 06:50:19 PM 35.8333 -114.9289 85° East 374 430 19,100 2,661 Climbing Los Angeles Center
Sun 06:51:19 PM 35.8422 -114.7847 86° East 399 459 21,900 2,585 Climbing Los Angeles Center
Sun 06:52:22 PM 35.8525 -114.6417 85° East 417 480 24,400 2,112 Climbing Los Angeles Center
Sun 06:53:24 PM 35.8075 -114.5083 113° Southeast 430 495 26,300 2,081 Climbing Los Angeles Center
Sun 06:54:26 PM 35.7403 -114.3828 123° Southeast 440 506 28,700 2,226 Climbing Los Angeles Center
Sun 06:55:28 PM 35.6481 -114.2928 142° Southeast 420 483 30,900 1,113 Climbing Los Angeles Center
Sun 06:56:30 PM 35.5419 -114.1961 143° Southeast 422 486 31,000 48 Climbing Los Angeles Center
Sun 06:57:32 PM 35.4392 -114.1050 144° Southeast 421 484 31,000  Level Los Angeles Center
Sun 06:58:34 PM 35.3442 -114.0208 144° Southeast 421 484 31,000  Level Los Angeles Center
Sun 06:59:36 PM 35.2494 -113.9369 144° Southeast 420 483 31,000  Level Los Angeles Center
Sun 07:00:38 PM 35.1486 -113.8450 143° Southeast 418 481 31,000 532 Level Los Angeles Center
Sun 07:01:40 PM 35.0514 -113.7603 144° Southeast 427 491 32,100 1,452 Climbing Los Angeles Center
Sun 07:02:42 PM 34.9519 -113.6736 144° Southeast 439 505 34,000 1,392 Climbing Los Angeles Center
Sun 07:03:45 PM 34.8542 -113.5872 144° Southeast 440 506 35,000 488 Climbing Los Angeles Center
Sun 07:04:45 PM 34.7561 -113.5019 144° Southeast 439 505 35,000  Level Albuquerque Center
Sun 07:05:46 PM 34.6386 -113.3997 144° Southeast 436 502 35,000  Level Albuquerque Center
Sun 07:06:48 PM 34.5419 -113.3156 144° Southeast 433 498 35,000  Level Albuquerque Center
Sun 07:07:49 PM 34.4433 -113.2275 144° Southeast 440 506 35,000  Level Albuquerque Center
Sun 07:08:51 PM 34.3383 -113.1344 144° Southeast 434 499 35,000  Level Albuquerque Center
Sun 07:09:52 PM 34.2389 -113.0506 145° Southeast 435 501 35,000  Level Albuquerque Center
Sun 07:10:54 PM 34.1394 -112.9658 145° Southeast 438 504 35,000 -585 Level Albuquerque Center
Sun 07:11:55 PM 34.0414 -112.8814 144° Southeast 436 502 33,800 -1,220 Descending Albuquerque Center
Sun 07:12:57 PM 33.9417 -112.7950 144° Southeast 441 507 32,500 -1,210 Descending Albuquerque Center
Sun 07:13:59 PM 33.8411 -112.7097 145° Southeast 444 511 31,300 -732 Descending Albuquerque Center
Sun 07:15:00 PM 33.7397 -112.6247 145° Southeast 447 514 31,000 -146 Descending Albuquerque Center
Sun 07:16:02 PM 33.6175 -112.5194 144° Southeast 452 520 31,000  Level Albuquerque Center
Sun 07:17:04 PM 33.5153 -112.4336 145° Southeast 452 520 31,000  Level Albuquerque Center
Sun 07:18:05 PM 33.4122 -112.3478 145° Southeast 453 521 31,000  Level Albuquerque Center
Sun 07:19:07 PM 33.3094 -112.2606 145° Southeast 455 524 31,000 -98 Level Albuquerque Center
Sun 07:20:08 PM 33.2064 -112.1739 145° Southeast 456 525 30,800 -585 Descending Albuquerque Center
Sun 07:21:10 PM 33.1036 -112.0878 145° Southeast 454 522 29,800 -1,355 Descending Albuquerque Center
Sun 07:22:12 PM 32.9814 -111.9858 145° Southeast 449 517 28,000 -2,390 Descending Albuquerque Center
Sun 07:23:13 PM 32.8736 -111.8972 145° Southeast 445 512 24,900 -2,878 Descending Albuquerque Center
Sun 07:24:15 PM 32.7803 -111.8181 144° Southeast 442 509 22,100 -2,634 Descending Albuquerque Center
Sun 07:25:16 PM 32.6817 -111.7381 146° Southeast 432 497 19,500 -2,488 Descending Albuquerque Center
Sun 07:26:18 PM 32.5858 -111.6581 145° Southeast 426 490 17,000 -2,620 Descending Albuquerque Center
Sun 07:26:27 PM 32.5603 -111.6397 149° Southeast 420 483 16,400 -2,762 Descending Albuquerque Center
Sun 07:27:21 PM 32.4914 -111.5469 131° Southeast 415 478 14,100 -1,474 Descending Albuquerque Center
Sun 07:28:21 PM 32.4289 -111.4686 133° Southeast 407 468 13,600 -787 Descending Albuquerque Center
Sun 07:28:22 PM 32.4136 -111.4539 141° Southeast 398 458 13,300 -2,557 Descending Albuquerque Center
Sun 07:29:22 PM 32.3394 -111.3644 134° Southeast 385 443 11,000 -2,361 Descending Albuquerque Center
Sun 07:29:23 PM 32.3389 -111.3653 232° Southwest 383 441 10,900 -484 Descending Albuquerque Center
Sun 07:30:24 PM 32.2694 -111.2817 134° Southeast 364 419 10,500 -694 Descending Albuquerque Center
Sun 07:31:24 PM 32.2050 -111.2044 135° Southeast 312 359 9,500 -984 Descending Albuquerque Center
Sun 07:31:25 PM 32.2083 -111.2086 313° West 326 375 9,500 -1,672 Level Albuquerque Center
Sun 07:32:25 PM 32.1450 -111.1375 136° Southeast 300 345 7,800 -1,548 Descending Albuquerque Center
Sun 07:32:27 PM 32.1492 -111.1406 328° Northwest 306 352 7,900 -800 Climbing Albuquerque Center
Sun 07:33:25 PM 32.0925 -111.0761 136° Southeast 272 313 7,000 -885 Descending Albuquerque Center
Sun 07:33:28 PM 32.0964 -111.0725 38° Northeast 295 339 7,000 -1,377 Level Albuquerque Center
Sun 07:34:26 PM 32.0453 -111.0211 140° Southeast 236 272 5,600 -1,355 Descending Albuquerque Center
Sun 07:34:30 PM 32.0489 -111.0156 53° Northeast 270 311 5,600 -600 Level Albuquerque Center
Sun 07:35:26 PM 32.0025 -110.9672 139° Southeast 225 259 5,000 -590 Descending Albuquerque Center
Sun 07:35:31 PM 32.0050 -110.9658 25° Northeast 243 280 5,000 -590 Level Albuquerque Center
Sun 07:36:27 PM 32.0183 -110.9050 75° East 194 223 4,400 -194 Descending Albuquerque Center
Sun 07:36:33 PM 32.0228 -110.8939 65° Northeast 231 266 4,800 -627 Climbing Albuquerque Center
Sun 07:37:34 PM 32.0619 -110.8881 North 156 180 3,700 -893 Descending Albuquerque Center
Sun 07:38:34 PM 32.0925 -110.9125 326° Northwest 144 166 3,000 -700 Descending Albuquerque Center

Login

Don't have an account? Register now (free) for customized features, flight alerts, and more!